Location: B?jaj?g
(11.7167°N, 92.6667°E)
Time: 14:52:38
(UTC+00:00)

H-2A R/B - Pass Details

Date: 18 September 2020
Orbit: 577 x 655 km, 98.5° (Epoch: 28 October)

Event Time Altitude Azimuth Distance (km) Brightness Sun altitude
Rises 21:29:43 0° 149° (SSE) 2,828 5.7 -32.2°
Reaches altitude 10° 21:32:01 10° 140° (SE) 1,939 4.9 -31.7°
Maximum altitude 21:35:48 33° 76° (ENE) 1,034 3.6 -30.8°
Drops below altitude 10° 21:39:39 10° 12° (NNE) 1,982 4.8 -29.8°
Sets 21:42:01 0° 3° (N) 2,902 5.6 -29.3°
